Voltar ao catálogo

STARLINK-32639

AtivoComunicaçõesVLEO
NORAD 62153·PAYLOAD·🇺🇸 United States

Lançado Nov 30, 2024 de Cape Canaveral Space Force Station

Loading…

Próximas Passagens (próximas 24 horas)

TLE

AtualizadoSource: CelesTrak SupGP

Época: Sep 14, 2026, 21:40 UTC

1 62153C 24224Q   26257.90326389 -.00052769  00000+0 -19110-2 0  2574
2 62153  43.0019 169.7271 0001351 269.3640 156.0461 15.27609829    12

Acompanhe STARLINK-32639 em tempo real com AllMySat

Download on the App Store